Regional Weather Roundup
Issued by NWS

Home | Current Version | Previous Version | Text Only | Print | Product List | Glossary On
Versions: 1 2 3 4 5 6 7 8 9 10 11 12 13 14 15 16 17 18 19 20 21 22 23 24 25 26 27 28 29 30 31 32 33 34 35 36 37 38 39 40 41 42 43 44 45 46 47 48 49 50
000
ASUS43 KMKX 010410
RWRWI

WISCONSIN REGIONAL WEATHER ROUNDUP
NATIONAL WEATHER SERVICE MILWAUKEE/SULLIVAN WI
1000 PM CST SAT FEB 28 2015

NOTE: "FAIR" INDICATES FEW OR NO CLOUDS BELOW 12,000 FEET WITH NO
SIGNIFICANT WEATHER AND/OR OBSTRUCTIONS TO VISIBILITY.

WIZ001-002-006>008-014>016-023>028-010500-
NORTHWEST WISCONSIN

CITY           SKY/WX    TMP DP  RH WIND       PRES   REMARKS
SUPERIOR ARPT  CLOUDY    15   3  59 SW13      30.28F WCI   1
ASHLAND        CLOUDY    15  -1  49 S12       30.31F WCI   2
HAYWARD        CLOUDY    12  -1  56 SW14      30.30S WCI  -3
SIREN          CLOUDY    13   3  63 S9        30.30F WCI   1
CUMBERLAND     CLOUDY    10   0  61 S8        30.31F WCI  -1
RICE LAKE      CLOUDY    12   0  58 S6        30.35S WCI   3
CHETEK         CLOUDY    12   0  60 S3        30.35S
LADYSMITH      MOCLDY    12  -1  54 S7        30.34F WCI   2
EAU CLAIRE     PTCLDY    12  -2  53 S7        30.37F WCI   1
MENOMONIE      CLOUDY    13   0  55 S7        30.37F WCI   3
NEW RICHMOND   CLOUDY    11   2  67 S10       30.32F WCI  -2
OSCEOLA        CLOUDY    13   4  66 S9        30.36S WCI   1
$$

WIZ003>005-009-010-017-018-010500-
NORTH CENTRAL WISCONSIN

CITY           SKY/WX    TMP DP  RH WIND       PRES   REMARKS
MANITOWISH WTR CLOUDY     9  -4  54 S5        30.26F WCI   1
ARBOR VITAE    CLOUDY    11  -3  52 S9        30.27F WCI  -1
WOODRUFF       CLOUDY    11  -3  52 S9        30.27F WCI  -1
RHINELANDER    CLOUDY    11  -4  51 S9        30.29F WCI  -2
EAGLE RIVER    MOCLDY     9  -6  49 CALM      30.27F
LAND O LAKES   CLOUDY    10  -5  50 S3        30.27F
PHILLIPS       CLOUDY    11  -3  52 SW8       30.29S WCI   0
TOMAHAWK       CLOUDY    11  -3  53 CALM      30.32S
MEDFORD        CLOUDY    12  -1  54 S9        30.32F WCI   0
MERRILL        CLOUDY    14  -2  49 S8        30.34S WCI   3
$$

WIZ029-030-035-036-043>047-010500-
CENTRAL WISCONSIN

CITY           SKY/WX    TMP DP  RH WIND       PRES   REMARKS
WAUSAU         CLOUDY    14  -1  51 S9        30.35S WCI   2
MOSINEE        MOCLDY    12   1  62 S10       30.38S WCI  -1
MARSHFIELD     CLOUDY    15  -1  49 S12       30.36S WCI   2
STEVENS POINT  CLOUDY    12   1  59 S10       30.40S WCI  -1
WAUPACA        CLOUDY    16   2  54 S9        30.43F WCI   5
WAUTOMA        CLOUDY    15   1  53 S6        30.44F WCI   6
WISC RAPIDS    CLOUDY    14  -2  49 S9        30.41F WCI   2
CAMP DOUGLAS   CLOUDY    14   2  58 S8        30.42S WCI   3
$$

WIZ011>013-019>022-031-037>040-048>050-010500-
NORTHEAST WISCONSIN

CITY           SKY/WX    TMP DP  RH WIND       PRES   REMARKS
ANTIGO         CLOUDY    10  -1  59 S10       30.33S WCI  -3
SHAWANO        CLOUDY    16   3  56 SW5       30.43S WCI   9
OCONTO         CLOUDY    14   1  56 SW7       30.44S WCI   4
STURGEON BAY   CLOUDY    12   3  67 S8        30.45F WCI   1
GREEN BAY      CLOUDY    15   2  56 S12       30.45F WCI   2
MANITOWOC      CLOUDY    17   5  59 SW8       30.47F WCI   7
APPLETON       CLOUDY    14   1  57 SW10      30.44F WCI   1
CLINTONVILLE   CLOUDY    16   3  57 S12       30.43S WCI   3
OSHKOSH        CLOUDY    15   2  56 S9        30.45S WCI   3
$$

WIZ032>034-041-042-053>061-010500-
SOUTHWEST WISCONSIN

CITY           SKY/WX    TMP DP  RH WIND       PRES   REMARKS
LA CROSSE      CLOUDY    16   1  51 S12       30.43S WCI   3
SPARTA         CLOUDY    15   1  56 S8        30.43S WCI   3
VIROQUA        CLOUDY    12   3  67 S6        30.38F WCI   2
BOSCOBEL       PTCLDY    13   2  61 S3        30.46F
PRAIRIE DU CHI MIX PCPN  10  -2  57 E5        30.46S WCI   2
PLATTEVILLE    PTCLDY    10   6  85 E3        30.43F
$$

WIZ056-057-062-063-064-067-068-010500-
SOUTH CENTRAL WISCONSIN

CITY           SKY/WX    TMP DP  RH WIND       PRES   REMARKS
REEDSBURG      CLOUDY    12   1  62 S7        30.43F WCI   2
BARABOO/DELLS  MOCLDY    12   1  62 S7        30.43F WCI   1
LONE ROCK      CLOUDY    12   1  61 E5        30.46F WCI   4
MINERAL POINT  FLURRIES  14   9  79 S5        30.42F WCI   6
MADISON        CLOUDY    14   3  61 S8        30.45S WCI   3
MIDDLETON      CLOUDY    15   6  67 S10       30.45S WCI   3
WATERTOWN      CLOUDY    13   4  66 CALM      30.46S
MONROE         PTCLDY    12  10  92 S6        30.43F WCI   3
JANESVILLE     LGT SNOW  18  12  79 S5        30.47S WCI  11
$$

WIZ051-052-058>065-066-070>072-010500-
SOUTHEAST WISCONSIN

CITY           SKY/WX    TMP DP  RH WIND       PRES   REMARKS
MILWAUKEE      LGT SNOW  18   8  65 SW9       30.49S WCI   7
WAUKESHA       PTCLDY    16   3  57 S5        30.47S WCI   9
MILWAUKEE/TIMM FLURRIES  19  10  68 S8        30.49R WCI   9
RACINE         LGT SNOW  19  10  68 SW7       30.51R WCI  10
BURLINGTON     LGT SNOW  15   8  74 S5        30.48F WCI   7
KENOSHA        CLOUDY    18  12  77 SW5       30.49S HAZE    WCI  11
FOND DU LAC    CLOUDY    16   1  51 S10       30.45F WCI   4
SHEBOYGAN      CLOUDY    16   3  56 SW8       30.46F WCI   5
WEST BEND      CLOUDY    14   3  62 CALM      30.45F
JUNEAU         PTCLDY    13   1  59 SE7       30.46F WCI   2
$$

LSZ147-162-010500-
LAKE SUPERIOR

STATION/POSITION TIME  TEMP    WIND        PRES    WAVE
                       AIR SEA DIR/SP/G            HT/PER
                 (UTC) (F)     (DEG/KT/KT) (MB)    (FT/S)
DEVILS ISLAND    0400   16     210/  9/ 11 1027.0F
PORT WING        0300   17     190/ 16/ 22 1026.1
SAXON HARBOR     0300   17     180/  6/ 16 1026.1F
$$

LMZ867-665-643>646-010500-
LAKE MICHIGAN

STATION/POSITION TIME  TEMP    WIND        PRES    WAVE
                       AIR SEA DIR/SP/G            HT/PER
                 (UTC) (F)     (DEG/KT/KT) (MB)    (FT/S)
NORTHPORT PIER   0402   13     160/  1/  7 1030.5F
SISTER BAY       0328   14     210/  8/  9   N/A
KEWAUNEE LAKESHO 0300   15     230/  6/  8 1030.7F
SHEBOYGAN LAKESH 0400   18     230/ 11/ 13 1033.5F
PORT WASHINGTON  0300   19     210/  7/ 10 1032.8F
MILWAUKEE LAKESH 0300   19     200/  7/  8   N/A
KENOSHA   LAKESH 0400   19     230/  6/  8 1032.5S
$$

TC  - TEMPERATURE IN CELSIUS
VSB - VISIBILITY IN STATUTE MILES
WCI - WIND CHILL INDEX
HX  - HEAT INDEX



USA.gov is the U.S. government's official web portal to all federal, state and local government web resources and services.